This is the latest recevied weather packets stored in our database for station/object K9ZOG. If no packets are shown the sender has not sent any weather packets the latest 10 day(s).
| Time | Temp. | Humidity | Pressure | Rain* | Wind** | Luminosity | Snow |
|---|---|---|---|---|---|---|---|
| 1777827554 | 13.33° C | 55% | 1011.7 hPa | 0 mm | - | 126 W/m² | - |
| 1777827252 | 13.33° C | 54% | 1011.9 hPa | 0 mm | - | 127 W/m² | - |
| 1777826953 | 13.33° C | 55% | 1011.9 hPa | 0 mm | - | 130 W/m² | - |
| 1777826652 | 12.78° C | 54% | 1011.7 hPa | 0 mm | - | 138 W/m² | - |
| 1777826353 | 12.78° C | 55% | 1011.9 hPa | 0 mm | - | 187 W/m² | - |
| 1777826052 | 12.22° C | 56% | 1011.6 hPa | 0 mm | - | 325 W/m² | - |
| 1777825754 | 12.22° C | 56% | 1011.7 hPa | 0 mm | - | 274 W/m² | - |
| 1777825453 | 12.22° C | 57% | 1011.9 hPa | 0 mm | - | 329 W/m² | - |
| 1777825152 | 11.67° C | 58% | 1012 hPa | 0 mm | - | 365 W/m² | - |
| 1777824853 | 11.67° C | 58% | 1012 hPa | 0 mm | - | 373 W/m² | - |
| 1777824553 | 11.67° C | 58% | 1012 hPa | 0 mm | - | 353 W/m² | - |
| 1777824253 | 11.67° C | 58% | 1012.1 hPa | 0 mm | - | 307 W/m² | - |
| 1777823952 | 11.11° C | 58% | 1012.1 hPa | 0 mm | - | 272 W/m² | - |
| 1777823654 | 11.11° C | 59% | 1012.1 hPa | 0 mm | - | 330 W/m² | - |
| 1777823352 | 11.11° C | 58% | 1012.3 hPa | 0 mm | - | 272 W/m² | - |
| 1777823053 | 11.11° C | 59% | 1012.4 hPa | 0 mm | - | 284 W/m² | - |
| 1777822754 | 11.11° C | 57% | 1012.3 hPa | 0 mm | - | 251 W/m² | - |
| 1777822453 | 11.11° C | 58% | 1012.4 hPa | 0 mm | - | 272 W/m² | - |
| 1777822153 | 11.11° C | 58% | 1012.4 hPa | 0 mm | - | 274 W/m² | - |
| 1777821852 | 11.11° C | 58% | 1012.3 hPa | 0 mm | - | 325 W/m² | - |
| 1777821552 | 11.11° C | 59% | 1012.4 hPa | 0 mm | - | 290 W/m² | - |
| 1777821252 | 11.11° C | 59% | 1012.4 hPa | 0 mm | - | 266 W/m² | - |
| 1777820953 | 11.11° C | 58% | 1012.5 hPa | 0 mm | - | 230 W/m² | - |
| 1777820653 | 11.11° C | 57% | 1012.4 hPa | 0 mm | - | 217 W/m² | - |
| 1777820355 | 10.56° C | 59% | 1012.3 hPa | 0 mm | - | 242 W/m² | - |
* Rain latest hour (hover to see other rain measurements)
** Current wind speed in m/s (hover to see current wind gust speed)